Kansas City, MO

11:26 AM CDT on October 01, 2016 (GMT -0500)
Kansas City Downtown

Weather History for KMKC - July, 2013

Change the Weather History Date:

Thursday, July 25, 2013

  Actual Average Record
Temperature  
Mean Temperature 78 °F -  
Max Temperature 87 °F 87 °F 107 °F (2012)
Min Temperature 71 °F 70 °F 62 °F (2004)
Cooling Degree Days 14    
Growing Degree Days 28 (Base 50)    
Moisture  
Dew Point 63 °F    
Average Humidity 64    
Maximum Humidity 85    
Minimum Humidity 43    
Precipitation  
Precipitation 0.15 in - - ()
Sea Level Pressure  
Sea Level Pressure 30.04 in    
Wind  
Wind Speed 4 mph (South)    
Max Wind Speed 8 mph    
Max Gust Speed -    
Visibility 10 miles    
Events Rain    
Averages and records for this station are not official NWS values.
T = Trace of Precipitation, MM = Missing Value Source: NWS Daily Summary

Daily Weather History Graph

Daily Weather History Graph

Search for Another Location

Airport or City:

Trip Planner

Search our weather history database for the weather conditions in past years. The results will help you decide how hot, cold, wet, or windy it might be!

Date:

Astronomy

Jul. 25, 2013 Rise Set
Actual Time 6:12 AM CDT 8:36 PM CDT
Civil Twilight 5:42 AM CDT 9:06 PM CDT
Nautical Twilight 5:04 AM CDT 9:44 PM CDT
Astronomical Twilight 4:23 AM CDT 10:25 PM CDT
Moon 10:19 PM CDT (7/25) 9:41 AM CDT (7/25)
Length of Visible Light 15h 24m
Length of Day
14h 23m
Waning Gibbous, 88% of the Moon is Illuminated
Jul 25
Waning Gibbous
Jul 29
Last Quarter
Aug 6
New
Aug 14
First Quarter
Aug 20
Full

Hourly Weather History & Observations

Time (CDT) Temp. Heat Index Dew Point Humidity Pressure Visibility Wind Dir Wind Speed Gust Speed Precip Events Conditions
12:54 AM 73.0 °F - 59.0 °F 61% 30.02 in 10.0 mi ESE 3.5 mph - N/A   Clear
1:54 AM 72.0 °F - 59.0 °F 64% 30.04 in 10.0 mi East 5.8 mph - N/A   Clear
2:54 AM 71.1 °F - 60.1 °F 68% 30.04 in 10.0 mi Calm Calm - N/A   Clear
3:54 AM 71.1 °F - 59.0 °F 66% 30.05 in 10.0 mi ENE 3.5 mph - N/A   Clear
4:54 AM 72.0 °F - 57.9 °F 61% 30.04 in 10.0 mi Calm Calm - N/A   Clear
5:54 AM 72.0 °F - 57.9 °F 61% 30.03 in 10.0 mi South 5.8 mph - N/A   Clear
6:54 AM 71.1 °F - 57.9 °F 63% 30.04 in 10.0 mi South 6.9 mph - N/A   Scattered Clouds
7:54 AM 73.0 °F - 59.0 °F 61% 30.06 in 10.0 mi SW 4.6 mph - N/A   Clear
8:54 AM 75.0 °F - 60.1 °F 60% 30.08 in 10.0 mi SSW 5.8 mph - N/A   Partly Cloudy
9:54 AM 79.0 °F - 61.0 °F 54% 30.07 in 10.0 mi South 4.6 mph - N/A   Clear
10:54 AM 82.9 °F 83.3 °F 61.0 °F 47% 30.06 in 10.0 mi South 8.1 mph - N/A   Clear
11:54 AM 84.9 °F 85.0 °F 61.0 °F 44% 30.05 in 10.0 mi SSW 6.9 mph - N/A   Clear
12:54 PM 86.0 °F 86.1 °F 61.0 °F 43% 30.04 in 10.0 mi SSW 5.8 mph - N/A   Clear
1:54 PM 84.0 °F 84.4 °F 61.0 °F 46% 30.04 in 10.0 mi Calm Calm - N/A   Clear
2:54 PM 82.9 °F 84.0 °F 63.0 °F 51% 30.03 in 10.0 mi Calm Calm - 0.00 in Rain Light Rain
3:54 PM 82.0 °F 84.1 °F 66.0 °F 58% 30.04 in 10.0 mi North 5.8 mph - 0.00 in   Overcast
4:54 PM 75.9 °F - 69.1 °F 79% 30.07 in 8.0 mi North 8.1 mph - 0.05 in Rain Light Rain
5:54 PM 73.0 °F - 66.9 °F 81% 30.04 in 10.0 mi ESE 6.9 mph - 0.07 in Rain Light Rain
6:54 PM 75.0 °F - 66.9 °F 76% 30.02 in 10.0 mi Calm Calm - 0.00 in   Mostly Cloudy
7:54 PM 73.9 °F - 69.1 °F 85% 30.01 in 10.0 mi Calm Calm - 0.01 in   Overcast
8:54 PM 73.9 °F - 68.0 °F 82% 29.99 in 10.0 mi Calm Calm - N/A   Overcast
9:54 PM 75.9 °F - 66.9 °F 74% 30.00 in 10.0 mi SSW 4.6 mph - N/A   Overcast
10:54 PM 73.9 °F - 66.9 °F 79% 30.01 in 10.0 mi WSW 3.5 mph - 0.00 in Rain Light Rain
11:54 PM 75.0 °F - 66.9 °F 76% 29.98 in 10.0 mi South 5.8 mph - 0.02 in Rain Light Rain